Location: Moscow
(55.7500°N, 37.5830°E)
Time: 17:11:12
(UTC+03:00)

Transit 2A - Pass Details

Date: 30 November 2021
Orbit: 591 x 967 km, 66.7° (Epoch: 21 January)

Event Time Altitude Azimuth Distance (km) Brightness Sun altitude
Rises 02:15:08 0° 214° (SW) 3,342 - -49.6°
Reaches altitude 10° 02:17:29 10° 213° (SSW) 2,466 - -49.4°
Maximum altitude 02:23:14 76° 129° (SE) 935 - -48.8°
Exits shadow 02:28:53 13° 46° (NE) 2,446 9.1 -48.2°
Drops below altitude 10° 02:29:31 10° 45° (NE) 2,679 9.3 -48.1°
Sets 02:32:09 0° 44° (NE) 3,650 10.2 -47.8°
